Kydon — SWBZ — position and weather

sailwx.info

Track history (hours):
 
Tides and Currents Weather Stations Pressure Air Temp Water Temp Dewpoint Dewpoint Depression Visibility Wind Speed Wind Dir Waves Ship Positions

Kydon

Last reported at 2016-Feb-12 05:33 UTC. Time now 2016-Feb-12 05:34 UTC.
Position N 37°57' E 023°38'.

Length 192 m; draft 6.1 m.

Type: Passenger vessel. MMSI: 239593000.

Date/timePositionNaut miles runAvg speedWind from/ knotsBaromVisibWave heightAir tempDewpointWater temp
2016-Feb-12 05:33N 37°57' E 023°38'0 0.0
2016-Feb-12 04:33N 37°57' E 023°38'8 8.3
2016-Feb-12 03:34N 37°49' E 023°41'16 0.5
2016-Feb-10 20:32N 37°33' E 023°46'1919.3
2016-Feb-10 19:33N 37°51' E 023°36'6 6.1
2016-Feb-10 18:33N 37°57' E 023°38'0 0.0
2016-Feb-10 17:33N 37°57' E 023°38'0 0.0
2016-Feb-10 16:33N 37°57' E 023°38'0 0.0
2016-Feb-10 15:33N 37°57' E 023°38'0 0.0
2016-Feb-10 14:33N 37°57' E 023°38'0 0.0
2016-Feb-10 13:33N 37°57' E 023°38'0 0.0
2016-Feb-10 12:33N 37°57' E 023°38'0 0.0
2016-Feb-10 11:33N 37°57' E 023°38'0 0.0
2016-Feb-10 10:33N 37°57' E 023°38'0 0.0
2016-Feb-10 09:33N 37°57' E 023°38'0 0.0
2016-Feb-10 08:33N 37°57' E 023°38'0 0.0
2016-Feb-10 07:33N 37°57' E 023°38'0 0.0
2016-Feb-10 06:33N 37°57' E 023°38'0 0.0
2016-Feb-10 05:33N 37°57' E 023°38'0 0.2
2016-Feb-10 04:33N 37°57' E 023°38'1212.2
2016-Feb-10 03:33N 37°45' E 023°42'12 0.4
2016-Feb-08 20:32N 37°33' E 023°45'1919.6
2016-Feb-08 19:34N 37°51' E 023°36'6 5.8
2016-Feb-08 18:33N 37°57' E 023°38'0 0.0
2016-Feb-08 17:33N 37°57' E 023°38'0 0.0
2016-Feb-08 16:33N 37°57' E 023°38'0 0.0
2016-Feb-08 15:33N 37°57' E 023°38'0 0.0
2016-Feb-08 14:33N 37°57' E 023°38'0 0.0
2016-Feb-08 13:33N 37°57' E 023°38'0 0.0
2016-Feb-08 12:33N 37°57' E 023°38'0 0.0
2016-Feb-08 11:33N 37°57' E 023°38'0 0.0
2016-Feb-08 10:33N 37°57' E 023°38'0 0.0
2016-Feb-08 09:33N 37°57' E 023°38'0 0.0
2016-Feb-08 08:33N 37°57' E 023°38'0 0.0
2016-Feb-08 07:33N 37°57' E 023°38'0 0.0
2016-Feb-08 06:33N 37°57' E 023°38'0 0.0
2016-Feb-08 05:33N 37°57' E 023°38'0 0.0
2016-Feb-08 04:33N 37°57' E 023°38'8 8.1
2016-Feb-08 03:33N 37°49' E 023°41'14 0.4
2016-Feb-06 20:34N 37°35' E 023°44'1918.6
2016-Feb-06 19:34N 37°53' E 023°37'4 3.8
2016-Feb-06 18:33N 37°57' E 023°38'0 0.0
2016-Feb-06 17:33N 37°57' E 023°38'0 0.0
2016-Feb-06 16:33N 37°57' E 023°38'0 0.0
2016-Feb-06 15:33N 37°57' E 023°38'0 0.0
2016-Feb-06 14:33N 37°57' E 023°38'0 0.0
2016-Feb-06 13:33N 37°57' E 023°38'0 0.0
2016-Feb-06 12:33N 37°57' E 023°38'0 0.0
2016-Feb-06 11:33N 37°57' E 023°38'0 0.0
2016-Feb-06 10:33N 37°57' E 023°38'0 0.0
2016-Feb-06 09:33N 37°57' E 023°38'0 0.0
2016-Feb-06 08:33N 37°57' E 023°38'0 0.0
2016-Feb-06 07:33N 37°57' E 023°38'0 0.0
2016-Feb-06 06:33N 37°57' E 023°38'0 0.0
2016-Feb-06 05:33N 37°57' E 023°38'0 0.0
2016-Feb-06 04:33N 37°57' E 023°38'0 0.0
2016-Feb-06 03:33N 37°57' E 023°38'0 0.0
2016-Feb-06 02:32N 37°57' E 023°38'0 0.0
2016-Feb-06 01:33N 37°57' E 023°38'0 0.0
2016-Feb-06 00:33N 37°57' E 023°38'0 0.0
2016-Feb-05 23:33N 37°57' E 023°38'0 0.0
2016-Feb-05 22:33N 37°57' E 023°38'0 0.0
2016-Feb-05 21:33N 37°57' E 023°38'0 0.0
2016-Feb-05 20:33N 37°57' E 023°38'0 0.0
2016-Feb-05 19:33N 37°57' E 023°38'0 0.0
2016-Feb-05 18:33N 37°57' E 023°38'0 0.0
2016-Feb-05 17:33N 37°57' E 023°38'0 0.0
2016-Feb-05 16:33N 37°57' E 023°38'0 0.0
2016-Feb-05 15:33N 37°57' E 023°38'0 0.0
2016-Feb-05 14:32N 37°57' E 023°38'0 0.0
2016-Feb-05 13:33N 37°57' E 023°38'0 0.0
2016-Feb-05 12:33N 37°57' E 023°38'0 0.0
2016-Feb-05 11:33N 37°57' E 023°38'0 0.0
2016-Feb-05 10:33N 37°57' E 023°38'0 0.0
2016-Feb-05 09:33N 37°57' E 023°38'0 0.0
2016-Feb-05 08:33N 37°57' E 023°38'0 0.0
2016-Feb-05 07:33N 37°57' E 023°38'0 0.0
2016-Feb-05 06:33N 37°57' E 023°38'0 0.0
2016-Feb-05 05:33N 37°57' E 023°38'0 0.0
2016-Feb-05 04:33N 37°57' E 023°38'0 0.0
2016-Feb-05 03:33N 37°57' E 023°38'0 0.0
2016-Feb-05 02:33N 37°57' E 023°38'0 0.0
2016-Feb-05 01:33N 37°57' E 023°38'0 0.0
2016-Feb-05 00:33N 37°57' E 023°38'0 0.0
2016-Feb-04 23:33N 37°57' E 023°38'0 0.0
2016-Feb-04 22:33N 37°57' E 023°38'0 0.0
2016-Feb-04 21:33N 37°57' E 023°38'0 0.0
2016-Feb-04 20:33N 37°57' E 023°38'0 0.0
2016-Feb-04 19:33N 37°57' E 023°38'0 0.0
2016-Feb-04 18:33N 37°57' E 023°38'0 0.0
2016-Feb-04 17:33N 37°57' E 023°38'0 0.0
2016-Feb-04 16:33N 37°57' E 023°38'0 0.0
2016-Feb-04 15:33N 37°57' E 023°38'0 0.0
2016-Feb-04 14:33N 37°57' E 023°38'0 0.0
2016-Feb-04 13:33N 37°57' E 023°38'0 0.0
2016-Feb-04 12:33N 37°57' E 023°38'0 0.0
2016-Feb-04 11:33N 37°57' E 023°38'0 0.0
2016-Feb-04 10:33N 37°57' E 023°38'0 0.0
2016-Feb-04 09:33N 37°57' E 023°38'0 0.0
2016-Feb-04 08:33N 37°57' E 023°38'0 0.0
2016-Feb-04 07:33N 37°57' E 023°38'0 0.0
2016-Feb-04 06:33N 37°57' E 023°38'0 0.0
2016-Feb-04 05:32N 37°57' E 023°38'0 0.0
2016-Feb-04 04:33N 37°57' E 023°38'1010.0
2016-Feb-04 03:34N 37°47' E 023°42'12220.0
2016-Feb-03 21:26N 35°55' E 024°43'2419.7
2016-Feb-03 20:12N 35°35' E 024°60'16 1.8
2016-Feb-03 11:05N 35°21' E 025°09'0 0.0
2016-Feb-03 08:32N 35°21' E 025°09'0 0.0
2016-Feb-03 05:32N 35°21' E 025°09'1 0.9
2016-Feb-03 04:32N 35°21' E 025°10'12219.6
2016-Feb-02 22:18N 37°09' E 023°57'2120.0
2016-Feb-02 21:16N 37°28' E 023°48'1419.8
2016-Feb-02 20:33N 37°41' E 023°42'1615.7
2016-Feb-02 19:33N 37°57' E 023°38'0 0.0
2016-Feb-02 18:33N 37°57' E 023°38'0 0.0
2016-Feb-02 17:33N 37°57' E 023°38'0 0.0
2016-Feb-02 16:33N 37°57' E 023°38'0 0.0
2016-Feb-02 15:33N 37°57' E 023°38'0 0.0
2016-Feb-02 14:33N 37°57' E 023°38'0 0.0
2016-Feb-02 13:33N 37°57' E 023°38'0 0.0
2016-Feb-02 12:33N 37°57' E 023°38'0 0.0
2016-Feb-02 11:33N 37°57' E 023°38'0 0.0
2016-Feb-02 10:33N 37°57' E 023°38'0 0.0
2016-Feb-02 09:33N 37°57' E 023°38'0 0.0
2016-Feb-02 08:33N 37°57' E 023°38'0 0.0
2016-Feb-02 07:33N 37°57' E 023°38'0 0.0
2016-Feb-02 06:33N 37°57' E 023°38'  
Track history (hours):
 
Tides and Currents Weather Stations Pressure Air Temp Water Temp Dewpoint Dewpoint Depression Visibility Wind Speed Wind Dir Waves Ship Positions

Kydon

Last reported at 2016-Feb-12 05:33 UTC. Time now 2016-Feb-12 05:34 UTC.
Position N 37°57' E 023°38'.

Length 192 m; draft 6.1 m.

Type: Passenger vessel. MMSI: 239593000.

Date/timePositionNaut miles runAvg speedWind from/ knotsBaromVisibWave heightAir tempDewpointWater temp
2016-Feb-12 05:33N 37°57' E 023°38'0 0.0
2016-Feb-12 04:33N 37°57' E 023°38'8 8.3
2016-Feb-12 03:34N 37°49' E 023°41'16 0.5
2016-Feb-10 20:32N 37°33' E 023°46'1919.3
2016-Feb-10 19:33N 37°51' E 023°36'6 6.1
2016-Feb-10 18:33N 37°57' E 023°38'0 0.0
2016-Feb-10 17:33N 37°57' E 023°38'0 0.0
2016-Feb-10 16:33N 37°57' E 023°38'0 0.0
2016-Feb-10 15:33N 37°57' E 023°38'0 0.0
2016-Feb-10 14:33N 37°57' E 023°38'0 0.0
2016-Feb-10 13:33N 37°57' E 023°38'0 0.0
2016-Feb-10 12:33N 37°57' E 023°38'0 0.0
2016-Feb-10 11:33N 37°57' E 023°38'0 0.0
2016-Feb-10 10:33N 37°57' E 023°38'0 0.0
2016-Feb-10 09:33N 37°57' E 023°38'0 0.0
2016-Feb-10 08:33N 37°57' E 023°38'0 0.0
2016-Feb-10 07:33N 37°57' E 023°38'0 0.0
2016-Feb-10 06:33N 37°57' E 023°38'0 0.0
2016-Feb-10 05:33N 37°57' E 023°38'0 0.2
2016-Feb-10 04:33N 37°57' E 023°38'1212.2
2016-Feb-10 03:33N 37°45' E 023°42'12 0.4
2016-Feb-08 20:32N 37°33' E 023°45'1919.6
2016-Feb-08 19:34N 37°51' E 023°36'6 5.8
2016-Feb-08 18:33N 37°57' E 023°38'0 0.0
2016-Feb-08 17:33N 37°57' E 023°38'0 0.0
2016-Feb-08 16:33N 37°57' E 023°38'0 0.0
2016-Feb-08 15:33N 37°57' E 023°38'0 0.0
2016-Feb-08 14:33N 37°57' E 023°38'0 0.0
2016-Feb-08 13:33N 37°57' E 023°38'0 0.0
2016-Feb-08 12:33N 37°57' E 023°38'0 0.0
2016-Feb-08 11:33N 37°57' E 023°38'0 0.0
2016-Feb-08 10:33N 37°57' E 023°38'0 0.0
2016-Feb-08 09:33N 37°57' E 023°38'0 0.0
2016-Feb-08 08:33N 37°57' E 023°38'0 0.0
2016-Feb-08 07:33N 37°57' E 023°38'0 0.0
2016-Feb-08 06:33N 37°57' E 023°38'0 0.0
2016-Feb-08 05:33N 37°57' E 023°38'0 0.0
2016-Feb-08 04:33N 37°57' E 023°38'8 8.1
2016-Feb-08 03:33N 37°49' E 023°41'14 0.4
2016-Feb-06 20:34N 37°35' E 023°44'1918.6
2016-Feb-06 19:34N 37°53' E 023°37'4 3.8
2016-Feb-06 18:33N 37°57' E 023°38'0 0.0
2016-Feb-06 17:33N 37°57' E 023°38'0 0.0
2016-Feb-06 16:33N 37°57' E 023°38'0 0.0
2016-Feb-06 15:33N 37°57' E 023°38'0 0.0
2016-Feb-06 14:33N 37°57' E 023°38'0 0.0
2016-Feb-06 13:33N 37°57' E 023°38'0 0.0
2016-Feb-06 12:33N 37°57' E 023°38'0 0.0
2016-Feb-06 11:33N 37°57' E 023°38'0 0.0
2016-Feb-06 10:33N 37°57' E 023°38'0 0.0
2016-Feb-06 09:33N 37°57' E 023°38'0 0.0
2016-Feb-06 08:33N 37°57' E 023°38'0 0.0
2016-Feb-06 07:33N 37°57' E 023°38'0 0.0
2016-Feb-06 06:33N 37°57' E 023°38'0 0.0
2016-Feb-06 05:33N 37°57' E 023°38'0 0.0
2016-Feb-06 04:33N 37°57' E 023°38'0 0.0
2016-Feb-06 03:33N 37°57' E 023°38'0 0.0
2016-Feb-06 02:32N 37°57' E 023°38'0 0.0
2016-Feb-06 01:33N 37°57' E 023°38'0 0.0
2016-Feb-06 00:33N 37°57' E 023°38'0 0.0
2016-Feb-05 23:33N 37°57' E 023°38'0 0.0
2016-Feb-05 22:33N 37°57' E 023°38'0 0.0
2016-Feb-05 21:33N 37°57' E 023°38'0 0.0
2016-Feb-05 20:33N 37°57' E 023°38'0 0.0
2016-Feb-05 19:33N 37°57' E 023°38'0 0.0
2016-Feb-05 18:33N 37°57' E 023°38'0 0.0
2016-Feb-05 17:33N 37°57' E 023°38'0 0.0
2016-Feb-05 16:33N 37°57' E 023°38'0 0.0
2016-Feb-05 15:33N 37°57' E 023°38'0 0.0
2016-Feb-05 14:32N 37°57' E 023°38'0 0.0
2016-Feb-05 13:33N 37°57' E 023°38'0 0.0
2016-Feb-05 12:33N 37°57' E 023°38'0 0.0
2016-Feb-05 11:33N 37°57' E 023°38'0 0.0
2016-Feb-05 10:33N 37°57' E 023°38'0 0.0
2016-Feb-05 09:33N 37°57' E 023°38'0 0.0
2016-Feb-05 08:33N 37°57' E 023°38'0 0.0
2016-Feb-05 07:33N 37°57' E 023°38'0 0.0
2016-Feb-05 06:33N 37°57' E 023°38'0 0.0
2016-Feb-05 05:33N 37°57' E 023°38'0 0.0
2016-Feb-05 04:33N 37°57' E 023°38'0 0.0
2016-Feb-05 03:33N 37°57' E 023°38'0 0.0
2016-Feb-05 02:33N 37°57' E 023°38'0 0.0
2016-Feb-05 01:33N 37°57' E 023°38'0 0.0
2016-Feb-05 00:33N 37°57' E 023°38'0 0.0
2016-Feb-04 23:33N 37°57' E 023°38'0 0.0
2016-Feb-04 22:33N 37°57' E 023°38'0 0.0
2016-Feb-04 21:33N 37°57' E 023°38'0 0.0
2016-Feb-04 20:33N 37°57' E 023°38'0 0.0
2016-Feb-04 19:33N 37°57' E 023°38'0 0.0
2016-Feb-04 18:33N 37°57' E 023°38'0 0.0
2016-Feb-04 17:33N 37°57' E 023°38'0 0.0
2016-Feb-04 16:33N 37°57' E 023°38'0 0.0
2016-Feb-04 15:33N 37°57' E 023°38'0 0.0
2016-Feb-04 14:33N 37°57' E 023°38'0 0.0
2016-Feb-04 13:33N 37°57' E 023°38'0 0.0
2016-Feb-04 12:33N 37°57' E 023°38'0 0.0
2016-Feb-04 11:33N 37°57' E 023°38'0 0.0
2016-Feb-04 10:33N 37°57' E 023°38'0 0.0
2016-Feb-04 09:33N 37°57' E 023°38'0 0.0
2016-Feb-04 08:33N 37°57' E 023°38'0 0.0
2016-Feb-04 07:33N 37°57' E 023°38'0 0.0
2016-Feb-04 06:33N 37°57' E 023°38'0 0.0
2016-Feb-04 05:32N 37°57' E 023°38'0 0.0
2016-Feb-04 04:33N 37°57' E 023°38'1010.0
2016-Feb-04 03:34N 37°47' E 023°42'12220.0
2016-Feb-03 21:26N 35°55' E 024°43'2419.7
2016-Feb-03 20:12N 35°35' E 024°60'16 1.8
2016-Feb-03 11:05N 35°21' E 025°09'0 0.0
2016-Feb-03 08:32N 35°21' E 025°09'0 0.0
2016-Feb-03 05:32N 35°21' E 025°09'1 0.9
2016-Feb-03 04:32N 35°21' E 025°10'12219.6
2016-Feb-02 22:18N 37°09' E 023°57'2120.0
2016-Feb-02 21:16N 37°28' E 023°48'1419.8
2016-Feb-02 20:33N 37°41' E 023°42'1615.7
2016-Feb-02 19:33N 37°57' E 023°38'0 0.0
2016-Feb-02 18:33N 37°57' E 023°38'0 0.0
2016-Feb-02 17:33N 37°57' E 023°38'0 0.0
2016-Feb-02 16:33N 37°57' E 023°38'0 0.0
2016-Feb-02 15:33N 37°57' E 023°38'0 0.0
2016-Feb-02 14:33N 37°57' E 023°38'0 0.0
2016-Feb-02 13:33N 37°57' E 023°38'0 0.0
2016-Feb-02 12:33N 37°57' E 023°38'0 0.0
2016-Feb-02 11:33N 37°57' E 023°38'0 0.0
2016-Feb-02 10:33N 37°57' E 023°38'0 0.0
2016-Feb-02 09:33N 37°57' E 023°38'0 0.0
2016-Feb-02 08:33N 37°57' E 023°38'0 0.0
2016-Feb-02 07:33N 37°57' E 023°38'0 0.0
2016-Feb-02 06:33N 37°57' E 023°38'  

Dump ship's entire track history